Change the Weather History Date:

Monday, October 14, 2013

  Actual Average (KESN) Record (KESN)
Temperature  
Mean Temperature 60 °F -  
Max Temperature 64 °F 75 °F 86 °F (1954)
Min Temperature 53 °F 53 °F 35 °F (1963)
Degree Days  
Heating Degree Days 6    
Growing Degree Days 10 (Base 50)    
Moisture  
Dew Point 52 °F    
Average Humidity 78    
Maximum Humidity 100    
Minimum Humidity 59    
Precipitation  
Precipitation 0.00 in - - ()
Sea Level Pressure  
Sea Level Pressure 30.29 in    
Wind  
Wind Speed 6 mph (NNE)    
Max Wind Speed 12 mph    
Max Gust Speed 16 mph    
Visibility 10 miles    
Events      
Averages and records for this station are not official NWS values.
T = Trace of Precipitation, MM = Missing Value Source: NWS Daily Summary

Daily Weather History Graph

Daily Weather History Graph

Search for Another Location

Airport or City:

Trip Planner

Search our weather history database for the weather conditions in past years. The results will help you decide how hot, cold, wet, or windy it might be!

Date:

Astronomy

Oct. 14, 2013 Rise Set
Actual Time 7:14 AM EDT 6:27 PM EDT
Civil Twilight 6:47 AM EDT 6:54 PM EDT
Nautical Twilight 6:16 AM EDT 7:25 PM EDT
Astronomical Twilight 5:45 AM EDT 7:56 PM EDT
Moon 3:54 PM EDT (10/14) 2:30 AM EDT (10/14)
Length of Visible Light 12h 07m
Length of Day
11h 13m
Waxing Gibbous, 79% of the Moon is Illuminated
Oct 14
Waxing Gibbous
Oct 18
Full
Oct 26
Last Quarter
Nov 3
New
Nov 10
First Quarter

Hourly Weather History & Observations

Time (EDT) Temp. Dew Point Humidity Pressure Visibility Wind Dir Wind Speed Gust Speed Precip Events Conditions
12:01 AM 59.0 °F 51.8 °F 77% 30.33 in 10.0 mi ENE 4.6 mph - N/A   Overcast
12:21 AM 59.0 °F 51.8 °F 77% 30.32 in 10.0 mi NE 5.8 mph - N/A   Overcast
12:41 AM 59.0 °F 51.8 °F 77% 30.32 in 10.0 mi NE 5.8 mph - N/A   Overcast
1:01 AM 59.0 °F 53.6 °F 82% 30.32 in 10.0 mi NE 3.5 mph - N/A   Overcast
1:22 AM 59.0 °F 51.8 °F 77% 30.32 in 10.0 mi NE 5.8 mph - N/A   Overcast
1:42 AM 59.0 °F 51.8 °F 77% 30.32 in 10.0 mi NE 4.6 mph - N/A   Overcast
2:02 AM 59.0 °F 51.8 °F 77% 30.32 in 10.0 mi NE 5.8 mph - N/A   Overcast
2:22 AM 57.2 °F 51.8 °F 82% 30.32 in 10.0 mi NNE 6.9 mph - N/A   Overcast
2:42 AM 57.2 °F 51.8 °F 82% 30.32 in 10.0 mi NE 3.5 mph - N/A   Overcast
3:02 AM 57.2 °F 51.8 °F 82% 30.31 in 10.0 mi NE 4.6 mph - N/A   Overcast
3:22 AM 57.2 °F 51.8 °F 82% 30.31 in 10.0 mi North 5.8 mph - N/A   Overcast
3:42 AM 55.4 °F 51.8 °F 88% 30.31 in 10.0 mi NNE 4.6 mph - N/A   Overcast
4:02 AM 55.4 °F 51.8 °F 88% 30.31 in 10.0 mi NNE 6.9 mph - N/A   Overcast
4:22 AM 55.4 °F 51.8 °F 88% 30.31 in 10.0 mi NNE 5.8 mph - N/A   Overcast
4:42 AM 55.4 °F 51.8 °F 88% 30.32 in 10.0 mi NE 5.8 mph - N/A   Overcast
5:02 AM 55.4 °F 51.8 °F 88% 30.32 in 10.0 mi NNE 6.9 mph - N/A   Overcast
5:22 AM 55.4 °F 51.8 °F 88% 30.32 in 10.0 mi NNE 6.9 mph - N/A   Overcast
5:42 AM 55.4 °F 51.8 °F 88% 30.32 in 10.0 mi NE 5.8 mph - N/A   Overcast
6:02 AM 55.4 °F 51.8 °F 88% 30.33 in 10.0 mi NNE 4.6 mph - N/A   Overcast
6:22 AM 55.4 °F 50.0 °F 82% 30.33 in 10.0 mi NE 4.6 mph - N/A   Overcast
6:42 AM 55.4 °F 51.8 °F 88% 30.33 in 10.0 mi NE 3.5 mph - N/A   Overcast
7:02 AM 55.4 °F 51.8 °F 88% 30.32 in 10.0 mi NE 5.8 mph - N/A   Overcast
7:22 AM 55.4 °F 51.8 °F 88% 30.32 in 10.0 mi NE 6.9 mph - N/A   Overcast
7:42 AM 55.4 °F 51.8 °F 88% 30.32 in 10.0 mi NE 4.6 mph - N/A   Mostly Cloudy
8:02 AM 55.4 °F 51.8 °F 88% 30.32 in 10.0 mi NE 6.9 mph - N/A   Mostly Cloudy
8:22 AM 59.0 °F 51.8 °F 77% 30.33 in 10.0 mi NE 6.9 mph - N/A   Mostly Cloudy
8:42 AM 59.0 °F 51.8 °F 77% 30.33 in 10.0 mi ENE 6.9 mph - N/A   Scattered Clouds
9:02 AM 59.0 °F 51.8 °F 77% 30.33 in 10.0 mi ENE 5.8 mph - N/A   Clear
9:22 AM 59.0 °F 51.8 °F 77% 30.34 in 10.0 mi ENE 8.1 mph - N/A   Clear
9:43 AM 60.8 °F 51.8 °F 72% 30.33 in 10.0 mi ENE 6.9 mph - N/A   Clear
10:03 AM 60.8 °F 51.8 °F 72% 30.33 in 10.0 mi ENE 6.9 mph - N/A   Clear
10:23 AM 60.8 °F 53.6 °F 77% 30.33 in 10.0 mi NNE 6.9 mph - N/A   Clear
10:43 AM 62.6 °F 53.6 °F 72% 30.33 in 10.0 mi NNE 6.9 mph - N/A   Clear
11:03 AM 62.6 °F 53.6 °F 72% 30.32 in 10.0 mi NE 5.8 mph - N/A   Clear
11:23 AM 62.6 °F 53.6 °F 72% 30.32 in 10.0 mi North 5.8 mph - N/A   Scattered Clouds
11:43 AM 62.6 °F 53.6 °F 72% 30.31 in 10.0 mi North 6.9 mph - N/A   Mostly Cloudy
12:03 PM 60.8 °F 53.6 °F 77% 30.31 in 10.0 mi North 9.2 mph - N/A   Mostly Cloudy
12:23 PM 62.6 °F 53.6 °F 72% 30.31 in 10.0 mi North 10.4 mph - N/A   Scattered Clouds
12:43 PM 62.6 °F 53.6 °F 72% 30.30 in 10.0 mi North 10.4 mph - N/A   Clear
1:03 PM 62.6 °F 53.6 °F 72% 30.29 in 10.0 mi North 11.5 mph 16.1 mph N/A   Scattered Clouds
1:23 PM 62.6 °F 55.4 °F 77% 30.28 in 10.0 mi North 8.1 mph - N/A   Mostly Cloudy
1:43 PM 64.4 °F 53.6 °F 68% 30.28 in 10.0 mi North 11.5 mph - N/A   Mostly Cloudy
2:03 PM 64.4 °F 53.6 °F 68% 30.28 in 10.0 mi North 10.4 mph - N/A   Scattered Clouds
2:23 PM 64.4 °F 53.6 °F 68% 30.27 in 10.0 mi North 9.2 mph - N/A   Clear
2:43 PM 64.4 °F 51.8 °F 64% 30.26 in 10.0 mi North 10.4 mph - N/A   Clear
3:03 PM 64.4 °F 51.8 °F 64% 30.26 in 10.0 mi NNW 9.2 mph - N/A   Clear
3:23 PM 64.4 °F 51.8 °F 64% 30.25 in 10.0 mi NNW 6.9 mph - N/A   Clear
3:43 PM 64.4 °F 51.8 °F 64% 30.24 in 10.0 mi NNW 6.9 mph - N/A   Clear
4:03 PM 64.4 °F 51.8 °F 64% 30.24 in 10.0 mi NW 5.8 mph - N/A   Clear
4:23 PM 64.4 °F 51.8 °F 64% 30.24 in 10.0 mi North 5.8 mph - N/A   Clear
4:43 PM 64.4 °F 51.8 °F 64% 30.24 in 10.0 mi NNW 4.6 mph - N/A   Clear
5:03 PM 64.4 °F 51.8 °F 64% 30.24 in 10.0 mi NNW 6.9 mph - N/A   Clear
5:23 PM 64.4 °F 50.0 °F 59% 30.24 in 10.0 mi NNW 6.9 mph - N/A   Clear
5:43 PM 64.4 °F 51.8 °F 64% 30.25 in 10.0 mi NNW 5.8 mph - N/A   Clear
6:03 PM 62.6 °F 51.8 °F 68% 30.25 in 10.0 mi NNW 4.6 mph - N/A   Clear
6:24 PM 62.6 °F 51.8 °F 68% 30.25 in 10.0 mi NNW 4.6 mph - N/A   Clear
6:44 PM 62.6 °F 51.8 °F 68% 30.26 in 10.0 mi Calm Calm - N/A   Clear
7:04 PM 60.8 °F 53.6 °F 77% 30.25 in 10.0 mi Calm Calm - N/A   Clear
7:24 PM 60.8 °F 51.8 °F 72% 30.26 in 10.0 mi NE 3.5 mph - N/A   Clear
7:44 PM 60.8 °F 53.6 °F 77% 30.26 in 10.0 mi NNE 4.6 mph - N/A   Clear
8:04 PM 60.8 °F 53.6 °F 77% 30.26 in 10.0 mi NE 3.5 mph - N/A   Clear
8:24 PM 60.8 °F 53.6 °F 77% 30.25 in 10.0 mi NE 4.6 mph - N/A   Clear
8:44 PM 59.0 °F 53.6 °F 82% 30.25 in 10.0 mi NNE 3.5 mph - N/A   Clear
9:04 PM 59.0 °F 53.6 °F 82% 30.25 in 10.0 mi ENE 3.5 mph - N/A   Clear
9:24 PM 59.0 °F 53.6 °F 82% 30.25 in 10.0 mi Calm Calm - N/A   Clear
9:44 PM 59.0 °F 53.6 °F 82% 30.25 in 10.0 mi Calm Calm - N/A   Clear
10:04 PM 57.2 °F 53.6 °F 88% 30.25 in 10.0 mi Calm Calm - N/A   Clear
10:24 PM 55.4 °F 53.6 °F 94% 30.26 in 10.0 mi Calm Calm - N/A   Clear
10:44 PM 55.4 °F 53.6 °F 94% 30.26 in 10.0 mi Calm Calm - N/A   Clear
11:04 PM 55.4 °F 53.6 °F 94% 30.26 in 10.0 mi ESE 4.6 mph - N/A   Clear
11:24 PM 55.4 °F 53.6 °F 94% 30.25 in 10.0 mi Calm Calm - N/A   Clear
11:44 PM 53.6 °F 53.6 °F 100% 30.26 in 10.0 mi East 3.5 mph - N/A   Clear